Change the Weather History Date:

Monday, April 8, 2013

  Actual Average Record
Temperature  
Mean Temperature 68 °F -  
Max Temperature 78 °F 64 °F 85 °F (1978)
Min Temperature 59 °F 45 °F 24 °F (2007)
Cooling Degree Days 4    
Growing Degree Days 18 (Base 50)    
Moisture  
Dew Point 54 °F    
Average Humidity 61    
Maximum Humidity 82    
Minimum Humidity 42    
Precipitation  
Precipitation 0.00 in - - ()
Sea Level Pressure  
Sea Level Pressure 29.89 in    
Wind  
Wind Speed 10 mph (South)    
Max Wind Speed 23 mph    
Max Gust Speed 32 mph    
Visibility 10 miles    
Events      
Averages and records for this station are not official NWS values.
T = Trace of Precipitation, MM = Missing Value Source: NWS Daily Summary

Daily Weather History Graph

Daily Weather History Graph

Search for Another Location

Airport or City:

Trip Planner

Search our weather history database for the weather conditions in past years. The results will help you decide how hot, cold, wet, or windy it might be!

Date:

Astronomy

Apr. 08, 2013 Rise Set
Actual Time 6:32 AM CDT 7:25 PM CDT
Civil Twilight 6:05 AM CDT 7:52 PM CDT
Nautical Twilight 5:34 AM CDT 8:23 PM CDT
Astronomical Twilight 5:01 AM CDT 8:56 PM CDT
Moon 5:20 AM CDT (4/8) 6:01 PM CDT (4/8)
Length of Visible Light 13h 46m
Length of Day
12h 53m
Waning Crescent, 3% of the Moon is Illuminated
Apr 8
Waning Crescent
Apr 10
New
Apr 18
First Quarter
Apr 25
Full
May 2
Last Quarter

Hourly Weather History & Observations

Time (CDT) Temp. Dew Point Humidity Pressure Visibility Wind Dir Wind Speed Gust Speed Precip Events Conditions
12:15 AM 60.8 °F 52.7 °F 75% 29.92 in 10.0 mi SSE 4.6 mph - N/A   Clear
12:35 AM 62.1 °F 53.1 °F 72% 29.92 in 10.0 mi SSE 4.6 mph - N/A   Clear
12:55 AM 62.8 °F 53.1 °F 71% 29.92 in 10.0 mi SSE 6.9 mph - N/A   Clear
1:15 AM 63.0 °F 52.7 °F 69% 29.91 in 10.0 mi SSE 8.1 mph - N/A   Scattered Clouds
1:35 AM 63.0 °F 52.7 °F 69% 29.91 in 10.0 mi SSE 6.9 mph - N/A   Mostly Cloudy
1:55 AM 63.0 °F 52.3 °F 68% 29.90 in 10.0 mi South 6.9 mph - N/A   Mostly Cloudy
2:15 AM 63.0 °F 52.0 °F 67% 29.90 in 10.0 mi SSE 8.1 mph - N/A   Mostly Cloudy
2:35 AM 62.6 °F 51.3 °F 66% 29.89 in 10.0 mi SSE 8.1 mph - N/A   Scattered Clouds
2:55 AM 62.4 °F 50.9 °F 66% 29.87 in 10.0 mi SSE 10.4 mph - N/A   Scattered Clouds
3:15 AM 62.6 °F 50.4 °F 64% 29.86 in 10.0 mi SSE 11.5 mph - N/A   Scattered Clouds
3:35 AM 62.6 °F 50.4 °F 64% 29.85 in 10.0 mi SSE 11.5 mph - N/A   Mostly Cloudy
3:55 AM 63.5 °F 50.7 °F 63% 29.85 in 10.0 mi South 13.8 mph 19.6 mph N/A   Overcast
4:15 AM 64.0 °F 50.9 °F 62% 29.85 in 10.0 mi South 11.5 mph 17.3 mph N/A   Overcast
4:35 AM 63.7 °F 50.9 °F 63% 29.85 in 10.0 mi South 11.5 mph - N/A   Overcast
4:55 AM 63.7 °F 51.3 °F 64% 29.85 in 10.0 mi South 10.4 mph - N/A   Overcast
5:15 AM 63.7 °F 51.4 °F 64% 29.85 in 10.0 mi South 9.2 mph - N/A   Overcast
5:35 AM 64.4 °F 51.8 °F 64% 29.86 in 10.0 mi South 10.4 mph 17.3 mph N/A   Overcast
5:55 AM 64.4 °F 52.2 °F 64% 29.87 in 10.0 mi South 10.4 mph - N/A   Overcast
6:15 AM 65.1 °F 52.7 °F 64% 29.87 in 10.0 mi South 12.7 mph 18.4 mph N/A   Overcast
6:35 AM 65.5 °F 53.1 °F 64% 29.88 in 10.0 mi South 13.8 mph 19.6 mph N/A   Overcast
6:55 AM 65.7 °F 53.4 °F 65% 29.89 in 10.0 mi South 13.8 mph 19.6 mph N/A   Overcast
7:15 AM 65.8 °F 54.1 °F 66% 29.89 in 10.0 mi South 13.8 mph 18.4 mph N/A   Overcast
7:35 AM 66.4 °F 54.9 °F 66% 29.89 in 10.0 mi South 15.0 mph 20.7 mph N/A   Overcast
7:55 AM 66.7 °F 55.2 °F 66% 29.89 in 10.0 mi South 13.8 mph 23.0 mph N/A   Overcast
8:15 AM 67.3 °F 55.6 °F 66% 29.90 in 10.0 mi SSW 15.0 mph 23.0 mph N/A   Overcast
8:35 AM 67.3 °F 55.6 °F 66% 29.90 in 10.0 mi SSW 13.8 mph 21.9 mph N/A   Mostly Cloudy
8:55 AM 67.6 °F 55.8 °F 66% 29.90 in 10.0 mi South 16.1 mph 23.0 mph N/A   Scattered Clouds
9:15 AM 68.9 °F 56.3 °F 64% 29.90 in 10.0 mi South 16.1 mph 21.9 mph N/A   Scattered Clouds
9:35 AM 68.4 °F 56.3 °F 65% 29.91 in 10.0 mi South 13.8 mph 23.0 mph N/A   Clear
9:55 AM 69.1 °F 56.7 °F 65% 29.91 in 10.0 mi South 17.3 mph 23.0 mph N/A   Clear
10:15 AM 69.8 °F 56.5 °F 63% 29.92 in 10.0 mi SSW 15.0 mph 26.5 mph N/A   Clear
10:35 AM 69.8 °F 56.5 °F 63% 29.92 in 10.0 mi SSW 17.3 mph 21.9 mph N/A   Clear
10:55 AM 70.2 °F 56.3 °F 61% 29.93 in 10.0 mi SSW 17.3 mph 26.5 mph N/A   Clear
11:15 AM 70.9 °F 56.7 °F 61% 29.92 in 10.0 mi South 15.0 mph 21.9 mph N/A   Clear
11:35 AM 70.9 °F 56.1 °F 59% 29.92 in 10.0 mi South 16.1 mph 25.3 mph N/A   Clear
11:55 AM 69.8 °F 55.9 °F 61% 29.92 in 10.0 mi South 12.7 mph 20.7 mph N/A   Scattered Clouds
12:15 PM 70.5 °F 56.7 °F 61% 29.85 in 10.0 mi SSE 23.0 mph 31.1 mph N/A   Scattered Clouds
12:35 PM 71.2 °F 55.9 °F 58% 29.87 in 10.0 mi South 19.6 mph 29.9 mph N/A   Scattered Clouds
12:55 PM 71.8 °F 56.5 °F 58% 29.87 in 10.0 mi South 16.1 mph 32.2 mph N/A   Scattered Clouds
1:15 PM 74.1 °F 55.9 °F 53% 29.91 in 10.0 mi SSW 12.7 mph 27.6 mph N/A   Mostly Cloudy
1:35 PM 73.9 °F 56.1 °F 54% 29.90 in 10.0 mi SSW 13.8 mph 25.3 mph N/A   Overcast
1:55 PM 75.0 °F 55.9 °F 51% 29.90 in 10.0 mi SSW 15.0 mph 21.9 mph N/A   Overcast
2:15 PM 75.2 °F 54.7 °F 49% 29.89 in 10.0 mi SSW 13.8 mph - N/A   Overcast
2:35 PM 76.5 °F 55.4 °F 48% 29.88 in 10.0 mi SSW 12.7 mph 18.4 mph N/A   Overcast
2:55 PM 77.0 °F 54.3 °F 45% 29.88 in 10.0 mi South 12.7 mph 19.6 mph N/A   Overcast
3:15 PM 77.4 °F 55.2 °F 46% 29.88 in 10.0 mi SSW 10.4 mph - N/A   Overcast
3:35 PM 77.5 °F 54.3 °F 44% 29.87 in 10.0 mi South 11.5 mph 17.3 mph N/A   Overcast
3:55 PM 77.7 °F 54.3 °F 44% 29.87 in 10.0 mi South 12.7 mph 18.4 mph N/A   Overcast
4:15 PM 78.8 °F 53.8 °F 42% 29.87 in 10.0 mi South 13.8 mph 21.9 mph N/A   Overcast
4:35 PM 78.1 °F 53.6 °F 43% 29.86 in 10.0 mi South 15.0 mph 20.7 mph N/A   Overcast
4:55 PM 78.1 °F 53.6 °F 43% 29.86 in 10.0 mi South 11.5 mph 23.0 mph N/A   Overcast
5:15 PM 76.3 °F 53.6 °F 45% 29.87 in 10.0 mi SSW 16.1 mph 24.2 mph N/A   Overcast
5:35 PM 75.2 °F 54.5 °F 48% 29.87 in 10.0 mi South 10.4 mph 23.0 mph N/A   Overcast
5:55 PM 74.8 °F 54.5 °F 49% 29.87 in 10.0 mi SSW 9.2 mph - N/A   Overcast
6:15 PM 74.3 °F 54.7 °F 50% 29.88 in 10.0 mi SSW 8.1 mph - N/A   Overcast
6:35 PM 73.8 °F 55.4 °F 53% 29.88 in 10.0 mi SSW 5.8 mph - N/A   Overcast
6:55 PM 73.6 °F 55.4 °F 53% 29.88 in 10.0 mi SSW 4.6 mph - N/A   Overcast
7:15 PM 72.7 °F 55.8 °F 55% 29.88 in 10.0 mi South 3.5 mph - N/A   Overcast
7:35 PM 72.5 °F 55.8 °F 56% 29.88 in 10.0 mi Calm Calm - N/A   Overcast
7:55 PM 71.6 °F 55.4 °F 57% 29.89 in 10.0 mi Calm Calm - N/A   Scattered Clouds
8:15 PM 71.1 °F 55.6 °F 58% 29.89 in 10.0 mi Calm Calm - N/A   Scattered Clouds
8:35 PM 69.1 °F 55.2 °F 61% 29.90 in 10.0 mi Calm Calm - N/A   Clear
8:55 PM 67.5 °F 55.8 °F 66% 29.90 in 10.0 mi SE 3.5 mph - N/A   Mostly Cloudy
9:15 PM 65.7 °F 55.4 °F 69% 29.91 in 10.0 mi Calm Calm - N/A   Scattered Clouds
9:35 PM 64.4 °F 55.6 °F 73% 29.92 in 10.0 mi ESE 3.5 mph - N/A   Scattered Clouds
9:55 PM 61.5 °F 53.4 °F 75% 29.92 in 10.0 mi Calm Calm - N/A   Scattered Clouds
10:15 PM 64.8 °F 55.6 °F 72% 29.93 in 10.0 mi SE 3.5 mph - N/A   Scattered Clouds
10:35 PM 62.6 °F 54.5 °F 75% 29.93 in 10.0 mi East 3.5 mph - N/A   Scattered Clouds
10:55 PM 61.2 °F 53.8 °F 77% 29.93 in 10.0 mi Calm Calm - N/A   Clear
11:15 PM 60.4 °F 54.0 °F 79% 29.93 in 10.0 mi East 3.5 mph - N/A   Scattered Clouds
11:35 PM 59.9 °F 53.8 °F 80% 29.92 in 10.0 mi East 3.5 mph - N/A   Mostly Cloudy
11:55 PM 59.2 °F 53.6 °F 82% 29.92 in 10.0 mi ESE 5.8 mph - N/A   Scattered Clouds